TimeIST,TemperatureF,Dew PointF,Humidity,Sea Level PressureIn,VisibilityMPH,Wind Direction,Wind SpeedMPH,Gust SpeedMPH,PrecipitationIn,Events,Conditions,WindDirDegrees,DateUTC
12:50 AM,71.6,60.8,69,29.86,-9999.0,ENE,2.3,-,N/A,,Clear,70,2012-10-21 22:50:00
1:50 AM,69.8,60.8,73,29.86,-9999.0,North,1.2,-,N/A,,Clear,360,2012-10-21 23:50:00
2:00 AM,69,60,65,29.88,6,North,2.3,,,,,350,2012-10-22 00:00:00
2:50 AM,68.0,59.0,73,29.86,-9999.0,ENE,2.3,-,N/A,,Clear,70,2012-10-22 00:50:00
3:50 AM,68.0,57.2,68,29.89,-9999.0,Variable,1.2,-,N/A,,Clear,0,2012-10-22 01:50:00
4:50 AM,66.2,57.2,73,29.89,-9999.0,NE,3.5,-,N/A,,Clear,50,2012-10-22 02:50:00
5:50 AM,66.2,55.4,68,29.89,-9999.0,South,4.6,-,N/A,,Clear,190,2012-10-22 03:50:00
6:50 AM,69.8,53.6,56,29.92,-9999.0,South,2.3,-,N/A,,Clear,180,2012-10-22 04:50:00
7:50 AM,75.2,57.2,53,29.92,6.2,SE,2.3,-,N/A,,Partly Cloudy,140,2012-10-22 05:50:00
8:50 AM,75.2,57.2,53,29.92,-9999.0,SE,2.3,-,N/A,,Clear,140,2012-10-22 06:50:00
9:50 AM,80.6,66.2,61,29.92,-9999.0,SSW,8.1,-,N/A,,Clear,200,2012-10-22 07:50:00
10:50 AM,80.6,68.0,65,29.89,5.6,WSW,8.1,-,N/A,,Unknown,250,2012-10-22 08:50:00
11:50 AM,82.4,64.4,54,29.89,6.2,WSW,10.4,-,N/A,,Scattered Clouds,250,2012-10-22 09:50:00
12:50 PM,82.4,66.2,58,29.86,6.2,WSW,9.2,-,N/A,,Partly Cloudy,250,2012-10-22 10:50:00
1:50 PM,82.4,66.2,58,29.86,6.2,WNW,9.2,-,N/A,,Partly Cloudy,290,2012-10-22 11:50:00
2:00 PM,83,65,46,29.86,6,WNW,9.2,,,,Scattered Clouds,290,2012-10-22 12:00:00
2:50 PM,82.4,64.4,54,29.86,6.2,West,10.4,-,N/A,,Partly Cloudy,270,2012-10-22 12:50:00
3:50 PM,80.6,62.6,54,29.86,6.2,WNW,8.1,-,N/A,,Partly Cloudy,290,2012-10-22 13:50:00
4:50 PM,78.8,62.6,57,29.86,6.2,NW,5.8,-,N/A,,Partly Cloudy,310,2012-10-22 14:50:00
5:50 PM,78.8,64.4,61,29.89,-9999.0,NW,4.6,-,N/A,,Clear,310,2012-10-22 15:50:00
6:50 PM,78.8,66.2,65,29.89,6.2,Variable,2.3,-,N/A,,Mostly Cloudy,0,2012-10-22 16:50:00
7:50 PM,77.0,64.4,65,29.92,6.2,Variable,2.3,-,N/A,,Scattered Clouds,0,2012-10-22 17:50:00
8:00 PM,77,65,57,29.92,6,,2.3,,,,Partly Cloudy,,2012-10-22 18:00:00
8:50 PM,77.0,64.4,65,29.92,6.2,Variable,2.3,-,N/A,,Partly Cloudy,0,2012-10-22 18:50:00
9:50 PM,75.2,62.6,65,29.92,-9999.0,ESE,3.5,-,N/A,,Clear,120,2012-10-22 19:50:00
10:50 PM,73.4,62.6,69,29.92,-9999.0,SE,2.3,-,N/A,,Clear,140,2012-10-22 20:50:00
11:50 PM,73.4,64.4,73,29.92,-9999.0,SE,4.6,-,N/A,,Clear,130,2012-10-22 21:50:00